Regional Weather Roundup
Issued by NWS

Home | Current Version | Previous Version | Text Only | Print | Product List | Glossary On
Versions: 1 2 3 4 5 6 7 8 9 10 11 12 13 14 15 16 17 18 19 20 21 22 23 24 25 26 27 28 29 30 31 32 33 34 35 36 37 38 39 40 41 42 43 44 45 46 47 48 49 50
085
ASUS43 KTOP 251408
RWRKS

WEATHER ROUNDUP FOR KANSAS
NATIONAL WEATHER SERVICE GOODLAND KS
900 AM CDT SAT MAR 25 2017

NOTE:  "FAIR" INDICATES FEW OR NO CLOUDS BELOW 12,000 FEET WITH NO
SIGNIFICANT WEATHER AND/OR OBSTRUCTIONS TO VISIBILITY.

KSZ001>006-013>018-027>032-041>047-251500-
NORTHWEST KANSAS

CITY           SKY/WX    TMP DP  RH WIND       PRES   REMARKS
GOODLAND       SUNNY     36  32  85 NW8       30.06R
HAYS             N/A     42  39  89 N16       30.00R
HILL CITY      CLOUDY    39  37  92 N10       30.04R FOG     WCI  32
RUSSELL        CLOUDY    41  39  93 N17       29.98R
$$

KSZ061>065-074>080-084>089-251500-
SOUTHWEST KANSAS

CITY           SKY/WX    TMP DP  RH WIND       PRES   REMARKS
DODGE CITY     PTSUNNY   44  40  85 NW12      30.01R
ELKHART          N/A     37  26  64 W10         N/A  WCI  30
GARDEN CITY    SUNNY     38  32  79 NW14      30.05R WCI  30
GREAT BEND     CLOUDY    42  38  85 N18       29.98R
LIBERAL        SUNNY     39  30  70 NW15      30.07R WCI  31
PRATT          CLOUDY    40  35  82 N18       29.97R WCI  31
$$

KSZ066>073-081>083-090>101-251500-
SOUTHEAST KANSAS

CITY           SKY/WX    TMP DP  RH WIND       PRES   REMARKS
CHANUTE        CLOUDY    46  44  93 NW12      29.86R
COFFEYVILLE    CLOUDY    47  45  93 NW18      29.86R
HUTCHINSON     CLOUDY    42  39  89 N18G29    29.94S
MEDICINE LODGE   N/A     44  37  76 N15G23    29.96R
NEWTON         CLOUDY    42  39  89 N23G29    29.91S
PARSONS        CLOUDY    47  44  90 NW14      29.87R
WICHITA INTL   CLOUDY    44  41  89 N21G29    29.92R
WICHITA JABRA  CLOUDY    43  41  93 N24       29.91S
WICHITA MCCONL CLOUDY    43  40  87 N24G30    29.91S
WINFIELD       CLOUDY    45  42  89 N15       29.93R
$$

KSZ007>012-019>026-033>040-048>060-102>105-251500-
NORTHEAST KANSAS

CITY           SKY/WX    TMP DP  RH WIND       PRES   REMARKS
CONCORDIA      CLOUDY    39  37  92 N17G24    29.96S WCI  30
EMPORIA        LGT RAIN  42  42 100 NW14      29.88R
LAWRENCE       LGT RAIN  47  46  97 W12       29.84R
MANHATTAN      LGT RAIN  43  41  93 VRB7      29.91S
MARYSVILLE     CLOUDY    41  39  93 N18G26    29.92S
OLATHE IND     CLOUDY    47  46  97 W9        29.83R
OLATHE EXE     CLOUDY    48  48 100 NW5       29.81R
SALINA         CLOUDY    43  40  89 N21G26    29.95S
TOPEKA BILLARD LGT RAIN  44  44 100 NW7       29.86R FOG
TOPEKA FORBES  RAIN      44  43  96 NW12      29.85S FOG
$$




USA.gov is the U.S. government's official web portal to all federal, state and local government web resources and services.